Regional Weather Roundup
Issued by NWS

Home | Current Version | Previous Version | Text Only | Print | Product List | Glossary On
Versions: 1 2 3 4 5 6 7 8 9 10 11 12 13 14 15 16 17 18 19 20 21 22 23 24 25 26 27 28 29 30 31 32 33 34 35 36 37 38 39 40 41 42 43 44 45 46 47 48 49 50
000
ASUS46 KSEW 271210
RWRWA

WASHINGTON REGIONAL WEATHER ROUNDUP
NATIONAL WEATHER SERVICE SEATTLE WA
500 AM PDT MON APR 27 2015

NOTE:"FAIR" INDICATES FEW OR NO CLOUDS BELOW 12,000 FEET WITH NO
SIGNIFICANT WEATHER AND/OR OBSTRUCTIONS TO VISIBILITY.

WAZ505-507>509-271300-
SEATTLE, TACOMA, EVERETT, AND VICINITY

CITY           SKY/WX    TMP DP  RH WIND       PRES   REMARKS
EVERETT        CLOUDY    51  47  86 SE6       30.26R
6HR MIN TEMP:  50; 6HR MAX TEMP:  53;

BOEING FIELD   LGT RAIN  54  50  86 SE7       30.26S
6HR MIN TEMP:  54; 6HR MAX TEMP:  56; 6HR PCP: TRACE;

RENTON         LGT RAIN  53  49  86 S6        30.26S
6HR MIN TEMP:  53; 6HR MAX TEMP:  56; 6HR PCP: TRACE;

SEATAC AIRPORT DRIZZLE   52  49  89 SE10      30.26S FOG
6HR MIN TEMP:  51; 6HR MAX TEMP:  53; 6HR PCP:  0.01;

JBLM-MCCHORD   DRIZZLE   51  51 100 CALM      30.26R FOG
6HR MIN TEMP:  51; 6HR MAX TEMP:  52; 6HR PCP:  0.01;

PUYALLUP       CLOUDY    50  50 100 CALM      30.26S
BREMERTON      CLOUDY    50  50 100 S8        30.27F
6HR MIN TEMP:  48; 6HR MAX TEMP:  50;

JBLM-FT LEWIS  DRIZZLE   52  51  99 CALM      30.25S FOG
6HR MIN TEMP:  51; 6HR MAX TEMP:  52; 6HR PCP:  0.02;

TACOMA NARROWS LGT RAIN  51  50  96 CALM      30.26F FOG
6HR MIN TEMP:  50; 6HR MAX TEMP:  52; 6HR PCP: TRACE;

$$

WAZ001-503-506-510-514-515-271300-
NORTH INTERIOR

CITY           SKY/WX    TMP DP  RH WIND       PRES   REMARKS
BELLINGHAM     LGT RAIN  49  48  97 NE5       30.25R FOG
6HR MIN TEMP:  49; 6HR MAX TEMP:  55; 6HR PCP:  0.01;

FRIDAY HARBOR  LGT RAIN  52  48  86 SE8       30.24S
6HR MIN TEMP:  51; 6HR MAX TEMP:  53; 6HR PCP: TRACE;

EASTSOUND      LGT RAIN  52  50  93 CALM      30.22S
PORT ANGELES   CLOUDY    49  44  83 CALM      30.22S
6HR MIN TEMP:  47; 6HR MAX TEMP:  50; 6HR PCP: TRACE;

NAS WHIDBEY    CLOUDY    56  46  69 E12       30.24R
6HR MIN TEMP:  56; 6HR MAX TEMP:  57;

ARLINGTON      CLOUDY    52  45  76 CALM      30.28R
6HR MIN TEMP:  52; 6HR MAX TEMP:  55;

BURLINGTON     CLOUDY    54  48  82 E8        30.25R
$$

WAZ020-022-039-040-504-511-512-271300-
SOUTHWEST INTERIOR

CITY           SKY/WX    TMP DP  RH WIND       PRES   REMARKS
SHELTON        CLOUDY    49  48  97 CALM      30.24S FOG
6HR MIN TEMP:  49; 6HR MAX TEMP:  50; 6HR PCP:  0.07;

OLYMPIA        CLOUDY    51  49  92 CALM      30.26S
6HR MIN TEMP:  50; 6HR MAX TEMP:  51; 6HR PCP:  0.01;

CHEHALIS       CLOUDY    54  52  94 S6        30.27R
KELSO          CLOUDY    54  48  82 CALM      30.31S
6HR MIN TEMP:  52; 6HR MAX TEMP:  54;

VANCOUVER      CLOUDY    51  50  96 CALM      30.27F
6HR MIN TEMP:  50; 6HR MAX TEMP:  53; 6HR PCP: TRACE;

SCAPPOOSE, OR  CLOUDY    52  51  97 CALM      30.27F
6HR MIN TEMP:  52; 6HR MAX TEMP:  53; 6HR PCP:  0.01;

PORTLAND, OR   MOCLDY    53  51  93 CALM      30.28F
6HR MIN TEMP:  52; 6HR MAX TEMP:  54; 6HR PCP: TRACE;

$$

WAZ021-516-517-271300-
WASHINGTON COAST

CITY           SKY/WX    TMP DP  RH WIND       PRES   REMARKS
FORKS          LGT RAIN  52  52 100 SE8       30.19S FOG
6HR MIN TEMP:  51; 6HR MAX TEMP:  52; 6HR PCP:  0.06;

HOQUIAM        LGT RAIN  52  52 100 NE7       30.24R FOG
6HR MIN TEMP:  51; 6HR MAX TEMP:  52; 6HR PCP:  0.10;

ASTORIA, OR    CLOUDY    53  51  93 CALM      30.24S
6HR MIN TEMP:  52; 6HR MAX TEMP:  53; 6HR PCP:  0.14;

$$

WAZ019-023-024-040-518-519-271300-
CASCADE MOUNTAINS AND COLUMBIA GORGE

CITY           SKY/WX    TMP DP  RH WIND       PRES   REMARKS
TROUTDALE, OR  PTCLDY    51  48  89 CALM      30.27S
6HR MIN TEMP:  51; 6HR MAX TEMP:  55;

THE DALLES, OR CLEAR     49  43  80 CALM      30.28R
6HR MIN TEMP:  48; 6HR MAX TEMP:  57;

$$

WAZ026-027-041>044-520-521-271300-
EAST SLOPES

CITY           SKY/WX    TMP DP  RH WIND       PRES   REMARKS
OMAK           CLOUDY    47  31  53 W5        30.27R
6HR MIN TEMP:  46; 6HR MAX TEMP:  54;

WENATCHEE      MOCLDY    49  31  49 SE3       30.26S
6HR MIN TEMP:  48; 6HR MAX TEMP:  57;

ELLENSBURG     MOCLDY    44  33  65 CALM      30.26S
6HR MIN TEMP:  44; 6HR MAX TEMP:  52;

YAKIMA         MOCLDY    45  33  63 W5        30.27R
6HR MIN TEMP:  45; 6HR MAX TEMP:  61;

$$

WAZ028-034-035-271300-
COLUMBIA BASIN

CITY           SKY/WX    TMP DP  RH WIND       PRES   REMARKS
EPHRATA        MOCLDY    43  30  60 N5        30.27R
6HR MIN TEMP:  40; 6HR MAX TEMP:  53;

MOSES LAKE     PTCLDY    38  28  67 N5        30.28R
6HR MIN TEMP:  37; 6HR MAX TEMP:  51;

PASCO          MOCLDY    44  35  70 CALM      30.29R
6HR MIN TEMP:  42; 6HR MAX TEMP:  50;

HERMISTON, OR  CLOUDY    44  34  67 SE5       30.28R
6HR MIN TEMP:  38; 6HR MAX TEMP:  52;

$$

WAZ036>038-271300-
NORTHEAST WASHINGTON

CITY           SKY/WX    TMP DP  RH WIND       PRES   REMARKS
SPOKANE GEIGER CLEAR     39  27  62 SE5       30.29S
6HR MIN TEMP:  38; 6HR MAX TEMP:  47;

SPOKANE FELTS  CLEAR     34  30  85 E3        30.32R
6HR MIN TEMP:  33; 6HR MAX TEMP:  45;

FAIRCHILD AFB  CLEAR     36  25  64 SE5       30.29R
6HR MIN TEMP:  35; 6HR MAX TEMP:  45; 6HR PCP: TRACE;

COEURDALENE,ID CLEAR     32  27  80 E5        30.34R
6HR MIN TEMP:  32; 6HR MAX TEMP:  43;

DEER PARK      CLEAR     27  25  92 CALM      30.32R
6HR MIN TEMP:  26; 6HR MAX TEMP:  35;

$$

WAZ029>033-271300-
SOUTHEAST WASHINGTON

CITY           SKY/WX    TMP DP  RH WIND       PRES   REMARKS
PULLMAN        CLEAR     36  24  62 N3        30.32R
6HR MIN TEMP:  34; 6HR MAX TEMP:  39;

LEWISTON, ID   CLEAR     39  29  67 CALM      30.34R
6HR MIN TEMP:  37; 6HR MAX TEMP:  49;

WALLA WALLA    PTCLDY    46  28  49 E7        30.28S
6HR MIN TEMP:  44; 6HR MAX TEMP:  52;

PENDLETON, OR  CLOUDY    42  27  55 SE9       30.28S
6HR MIN TEMP:  38; 6HR MAX TEMP:  46;

$$


USA.gov is the U.S. government's official web portal to all federal, state and local government web resources and services.